Location: Gleizolles
(44.4833°N, 6.7667°E)
Time: 13:11:05
(UTC+00:00)

X-37B - Visible Passes

Search period start: 04 December 2021 00:00
Search period end: 14 December 2021 00:00
Orbit: 330 x 341 km, 45.0° (Epoch: 20 November)

Date Brightness Start Highest point End Pass type
(mag) Time Alt. Az. Time Alt. Az. Time Alt. Az.
05 Dec 3.4 18:09:44 10° SSW 18:10:00 12° SSW 18:10:00 12° SSW visible
06 Dec 3.0 16:57:11 10° SSE 16:57:21 10° SE 16:57:32 10° SE visible
06 Dec 3.8 18:29:34 10° SW 18:29:43 11° SW 18:29:43 11° SW visible
07 Dec 2.0 17:15:10 10° SSW 17:17:29 22° SSE 17:18:08 20° SE visible
08 Dec 0.9 17:35:00 10° SW 17:37:44 45° SSE 17:37:44 45° SSE visible
09 Dec 1.6 17:55:17 10° WSW 17:57:18 41° WSW 17:57:18 41° WSW visible
10 Dec 1.0 16:40:25 10° SW 16:43:11 45° SSE 16:45:37 12° E visible
10 Dec 3.0 18:15:45 10° W 18:16:51 21° W 18:16:51 21° W visible
11 Dec 0.3 17:00:43 10° WSW 17:03:35 80° SSE 17:05:09 24° E visible
11 Dec 4.0 18:36:14 10° W 18:36:23 11° W 18:36:23 11° W visible
12 Dec 0.2 17:21:10 10° W 17:24:03 78° N 17:24:42 49° ENE visible
13 Dec 0.5 17:41:40 10° W 17:44:16 69° WNW 17:44:16 69° WNW visible
